Hourly Weather Roundup
Issued by NWS Central Illinois

Home | Current Version | Previous Version | Text Only | Print | Product List | Glossary On
Versions: 1 2 3 4 5 6 7 8 9 10 11 12 13 14 15 16 17 18 19 20 21 22 23 24 25 26 27 28 29 30 31 32 33 34 35 36 37 38 39 40 41 42 43 44 45 46 47 48 49 50
775
NZUS43 KILX 231510
HWRILX

Area Weather Roundup
National Weather Service Lincoln IL
1000 AM CDT MON APR 23 2018

NOTE:  "FAIR" indicates few or no clouds below 12,000 feet, with
       no sigificant weather and/or obstructions to visibility.


CITY           SKY/WX    TMP DP  RH WIND       PRES   REMARKS
Bloomington    CLOUDY    55  31  39 NE17      30.11F
Champaign      CLOUDY    55  36  48 NE13      30.08F
Danville       LGT RAIN  53  36  53 E9        30.08S
Decatur        CLOUDY    57  37  47 E16       30.07S
Effingham      LGT RAIN  50  50 100 NE9       30.05R
Flora          CLOUDY    54  52  92 E14G20    30.00F
Galesburg      FAIR      58  34  39 N16       30.14F
Jacksonville   CLOUDY    54  32  43 NE15      30.07F
Lacon          FAIR      57  31  37 NE10      30.13F
Lawrenceville  CLOUDY    55  52  89 E15G22    30.02S
Litchfield     RAIN      48  47  95 NE10G16   30.02R
$$


CITY           SKY/WX    TMP DP  RH WIND       PRES   REMARKS
Lincoln        PTSUNNY   57  35  44 NE13      30.09F
Macomb         PTSUNNY   56  31  37 NE17      30.13F
Mattoon        LGT RAIN  51  47  86 E9        30.04F FOG
Mt Carmel AP   CLOUDY    55  52  92 E15       30.01S
Olney-Noble AP CLOUDY    53  51  94 NE14      30.01S
Paris AP       DRIZZLE   53  46  77 E9        30.08S
Peoria         PTSUNNY   55  31  39 NE12      30.12S
Pontiac        FAIR      58  32  37 NE14G22   30.14F
Rantoul        PTSUNNY   57  38  49 E13       30.10F
Robinson       LGT RAIN  51  51 100 E12       30.05S
Springfield    CLOUDY    59  35  40 NE15      30.07F
Taylorville    CLOUDY    56  42  59 E12       30.05S
$$

...REGIONAL REPORTS...


CITY           SKY/WX    TMP DP  RH WIND       PRES   REMARKS
Chicago O`Hare CLOUDY    51  28  41 NE14      30.19F
Kankakee       FAIR      56  31  38 E14       30.15F
La Salle       FAIR      56  33  40 NE14      30.15F
Moline         FAIR      58  27  30 NE9       30.15F
Mount Sterling CLOUDY    56  31  39 NE12G18   30.08S
Mount Vernon   LGT RAIN  52  51  97 NE13      29.97R FOG
Pittsfield     CLOUDY    56  32  40 NE16      30.08S
Quincy         CLOUDY    56  32  40 NE17      30.08S
Rockford       CLOUDY    57  26  30 E14       30.22F
$$


CITY           SKY/WX    TMP DP  RH WIND       PRES   REMARKS
Burlington     CLOUDY    55  29  36 NE17      30.12F
Cedar Rapids   FAIR      61  23  23 NE12      30.18F
Des Moines     PTSUNNY   56  31  38 NE9       30.20F
Kirksville     CLOUDY    58  36  43 N10       30.12F
Ottumwa        SUNNY     59  30  33 NE10      30.16F
St Louis       LGT RAIN  49  49 100 NE12      30.00S FOG
$$


CITY           SKY/WX    TMP DP  RH WIND       PRES   REMARKS
Terre Haute    RAIN      51  49  92 E12       30.08R FOG
Evansville     CLOUDY    58  55  90 E13G22    29.97S
Indianapolis   LGT RAIN  54  45  71 E13       30.10F
Lafayette      PTSUNNY   53  37  54 NE12      30.11F
Madison        PTSUNNY   55  27  34 E8        30.24F
Milwaukee      PTSUNNY   51  31  46 N7        30.25F
$$






USA.gov is the U.S. government's official web portal to all federal, state and local government web resources and services.